Weather History for KMMH - September, 2013

Change the Weather History Date:

Monday, September 2, 2013

  Actual Average (KBIH) Record (KBIH)
Temperature  
Mean Temperature 62 °F 72 °F  
Max Temperature 78 °F 93 °F 106 °F (1950)
Min Temperature 46 °F 51 °F 36 °F (2000)
Degree Days  
Heating Degree Days 3 0  
Month to date heating degree days 0  
Since 1 July heating degree days 2  
Cooling Degree Days 0 7  
Month to date cooling degree days 14  
Year to date cooling degree days 991  
Growing Degree Days 12 (Base 50)    
Moisture  
Dew Point 42 °F    
Average Humidity 45    
Maximum Humidity 76    
Minimum Humidity 21    
Precipitation  
Precipitation 0.00 in 0.01 in 0.18 in (1945)
Month to date precipitation 0.01  
Year to date precipitation 3.38  
Snow  
Snow 0.00 in 0.00 in - ()
Month to date snowfall 0.0  
Since 1 July snowfall 0.0  
Since 1 September snowfall 0.0  
Snow Depth -    
Sea Level Pressure  
Sea Level Pressure 30.21 in    
Wind  
Wind Speed 5 mph (SW)    
Max Wind Speed 24 mph    
Max Gust Speed 38 mph    
Visibility 10 miles    
Events      
T = Trace of Precipitation, MM = Missing Value Source: NWS Daily Summary

Daily Weather History Graph

Daily Weather History Graph

Search for Another Location

Airport or City:

Trip Planner

Search our weather history database for the weather conditions in past years. The results will help you decide how hot, cold, wet, or windy it might be!

Date:

Astronomy

Sep. 02, 2013 Rise Set
Actual Time 6:26 AM PDT 7:22 PM PDT
Civil Twilight 5:59 AM PDT 7:49 PM PDT
Nautical Twilight 5:28 AM PDT 8:20 PM PDT
Astronomical Twilight 4:55 AM PDT 8:53 PM PDT
Moon 3:50 AM PDT (9/2) 5:37 PM PDT (9/2)
Length of Visible Light 13h 49m
Length of Day
12h 55m
Waning Crescent, 7% of the Moon is Illuminated
Sep 2
Waning Crescent
Sep 5
New
Sep 12
First Quarter
Sep 19
Full
Sep 26
Last Quarter

Hourly Weather History & Observations

Time (PDT) Temp. Windchill Dew Point Humidity Pressure Visibility Wind Dir Wind Speed Gust Speed Precip Events Conditions
12:15 AM 60.8 °F - 46.4 °F 59% 30.24 in 10.0 mi Calm Calm - N/A   Overcast
12:35 AM 59.0 °F - 44.6 °F 59% 30.24 in 10.0 mi Calm Calm - N/A   Overcast
12:55 AM 59.0 °F - 46.4 °F 63% 30.24 in 10.0 mi Calm Calm - N/A   Overcast
1:15 AM 59.0 °F - 44.6 °F 59% 30.24 in 10.0 mi Calm Calm - N/A   Overcast
1:35 AM 59.0 °F - 44.6 °F 59% 30.24 in 10.0 mi Calm Calm - N/A   Overcast
1:55 AM 59.0 °F - 44.6 °F 59% 30.24 in 10.0 mi Calm Calm - N/A   Scattered Clouds
2:15 AM 59.0 °F - 44.6 °F 59% 30.24 in 10.0 mi Calm Calm - N/A   Scattered Clouds
2:35 AM 59.0 °F - 46.4 °F 63% 30.23 in 10.0 mi SSE 4.6 mph - N/A   Scattered Clouds
2:55 AM 59.0 °F - 46.4 °F 63% 30.23 in 10.0 mi Calm Calm - N/A   Clear
3:15 AM 57.2 °F - 44.6 °F 63% 30.22 in 10.0 mi Calm Calm - N/A   Scattered Clouds
3:35 AM 55.4 °F - 44.6 °F 67% 30.22 in 10.0 mi Calm Calm - N/A   Scattered Clouds
3:55 AM 53.6 °F - 42.8 °F 67% 30.22 in 10.0 mi Calm Calm - N/A   Clear
4:15 AM 53.6 °F - 42.8 °F 67% 30.22 in 10.0 mi Calm Calm - N/A   Clear
4:55 AM 51.8 °F - 42.8 °F 71% 30.22 in 10.0 mi Calm Calm - N/A   Clear
5:15 AM 50.0 °F - 42.8 °F 76% 30.23 in 10.0 mi Calm Calm - N/A   Clear
5:35 AM 51.8 °F - 42.8 °F 71% 30.23 in 10.0 mi Calm Calm - N/A   Clear
5:55 AM 51.8 °F - 41.0 °F 67% 30.23 in 10.0 mi Calm Calm - N/A   Clear
6:15 AM 50.0 °F - 41.0 °F 71% 30.23 in 10.0 mi Calm Calm - N/A   Clear
6:35 AM 48.2 °F - 41.0 °F 76% 30.23 in 10.0 mi West 12.7 mph - N/A   Clear
6:55 AM 46.4 °F 45.2 °F 39.2 °F 76% 30.24 in 10.0 mi NNE 3.5 mph - N/A   Clear
7:15 AM 51.8 °F - 42.8 °F 71% 30.24 in 10.0 mi Calm Calm - N/A   Clear
7:35 AM 53.6 °F - 42.8 °F 67% 30.24 in 10.0 mi NE 3.5 mph - N/A   Clear
7:55 AM 59.0 °F - 44.6 °F 59% 30.25 in 10.0 mi Calm Calm - N/A   Clear
8:15 AM 62.6 °F - 46.4 °F 55% 30.25 in 10.0 mi Calm Calm - N/A   Clear
8:35 AM 62.6 °F - 44.6 °F 52% 30.25 in 10.0 mi Calm Calm - N/A   Clear
8:55 AM 64.4 °F - 46.4 °F 52% 30.25 in 10.0 mi Calm Calm - N/A   Clear
9:15 AM 66.2 °F - 44.6 °F 46% 30.26 in 10.0 mi Calm Calm - N/A   Clear
9:35 AM 68.0 °F - 44.6 °F 43% 30.25 in 10.0 mi Calm Calm - N/A   Clear
9:55 AM 69.8 °F - 44.6 °F 40% 30.25 in 10.0 mi SSE 5.8 mph - N/A   Clear
10:15 AM 73.4 °F - 46.4 °F 38% 30.24 in 10.0 mi ESE 6.9 mph - N/A   Clear
10:35 AM 73.4 °F - 44.6 °F 36% 30.24 in 10.0 mi ESE 9.2 mph - N/A   Clear
10:55 AM 71.6 °F - 42.8 °F 35% 30.24 in 10.0 mi ESE 8.1 mph - N/A   Clear
11:15 AM 75.2 °F - 42.8 °F 31% 30.23 in 10.0 mi ESE 5.8 mph - N/A   Clear
11:35 AM 73.4 °F - 41.0 °F 31% 30.23 in 10.0 mi SE 5.8 mph - N/A   Scattered Clouds
11:55 AM 75.2 °F - 41.0 °F 29% 30.22 in 10.0 mi SE 6.9 mph - N/A   Scattered Clouds
12:15 PM 77.0 °F - 41.0 °F 28% 30.22 in 10.0 mi SE 5.8 mph - N/A   Scattered Clouds
12:35 PM 77.0 °F - 41.0 °F 28% 30.22 in 10.0 mi SSE 3.5 mph 16.1 mph N/A   Mostly Cloudy
12:55 PM 77.0 °F - 39.2 °F 26% 30.21 in 10.0 mi ESE 9.2 mph - N/A   Mostly Cloudy
1:15 PM 75.2 °F - 39.2 °F 27% 30.21 in 10.0 mi East 4.6 mph - N/A   Overcast
1:35 PM 75.2 °F - 37.4 °F 25% 30.20 in 10.0 mi Calm Calm - N/A   Overcast
1:55 PM 77.0 °F - 41.0 °F 28% 30.20 in 10.0 mi West 19.6 mph 29.9 mph N/A   Overcast
2:15 PM 78.8 °F - 41.0 °F 26% 30.20 in 10.0 mi WNW 20.7 mph 31.1 mph N/A   Overcast
2:35 PM 77.0 °F - 39.2 °F 26% 30.19 in 10.0 mi WNW 18.4 mph 31.1 mph N/A   Mostly Cloudy
2:55 PM 77.0 °F - 39.2 °F 26% 30.18 in 10.0 mi West 21.9 mph 38.0 mph N/A   Mostly Cloudy
3:15 PM 78.8 °F - 37.4 °F 23% 30.18 in 10.0 mi West 13.8 mph 33.4 mph N/A   Mostly Cloudy
3:35 PM 78.8 °F - 39.2 °F 24% 30.18 in 10.0 mi West 21.9 mph 34.5 mph N/A   Scattered Clouds
3:55 PM 78.8 °F - 39.2 °F 24% 30.18 in 10.0 mi West 20.7 mph 32.2 mph N/A   Scattered Clouds
4:15 PM 78.8 °F - 35.6 °F 21% 30.18 in 10.0 mi WSW 21.9 mph 28.8 mph N/A   Scattered Clouds
4:35 PM 78.8 °F - 35.6 °F 21% 30.17 in 10.0 mi West 18.4 mph 33.4 mph N/A   Scattered Clouds
4:55 PM 77.0 °F - 39.2 °F 26% 30.18 in 10.0 mi West 23.0 mph 32.2 mph N/A   Scattered Clouds
5:15 PM 77.0 °F - 39.2 °F 26% 30.17 in 10.0 mi WSW 20.7 mph 28.8 mph N/A   Scattered Clouds
5:35 PM 73.4 °F - 37.4 °F 27% 30.16 in 10.0 mi WSW 17.3 mph 25.3 mph N/A   Clear
5:55 PM 73.4 °F - 37.4 °F 27% 30.16 in 10.0 mi SW 23.0 mph 26.5 mph N/A   Clear
6:15 PM 71.6 °F - 41.0 °F 33% 30.16 in 10.0 mi SW 19.6 mph 25.3 mph N/A   Clear
6:35 PM 71.6 °F - 39.2 °F 31% 30.16 in 10.0 mi SSW 19.6 mph 28.8 mph N/A   Clear
6:55 PM 69.8 °F - 39.2 °F 33% 30.16 in 10.0 mi SSW 21.9 mph 29.9 mph N/A   Clear
7:15 PM 69.8 °F - 39.2 °F 33% 30.16 in 10.0 mi SW 24.2 mph 29.9 mph N/A   Clear
7:35 PM 69.8 °F - 41.0 °F 35% 30.16 in 10.0 mi SW 23.0 mph 29.9 mph N/A   Clear
7:55 PM 68.0 °F - 41.0 °F 37% 30.16 in 10.0 mi SSW 18.4 mph 28.8 mph N/A   Clear
8:15 PM 68.0 °F - 41.0 °F 37% 30.18 in 10.0 mi South 17.3 mph 28.8 mph N/A   Clear
8:35 PM 68.0 °F - 42.8 °F 40% 30.19 in 10.0 mi SW 19.6 mph 27.6 mph N/A   Clear
8:55 PM 68.0 °F - 41.0 °F 37% 30.20 in 10.0 mi SW 16.1 mph 24.2 mph N/A   Clear
9:15 PM 68.0 °F - 41.0 °F 37% 30.21 in 10.0 mi SW 13.8 mph 21.9 mph N/A   Clear
9:35 PM 68.0 °F - 41.0 °F 37% 30.22 in 10.0 mi WNW 10.4 mph 27.6 mph N/A   Clear
9:55 PM 66.2 °F - 42.8 °F 43% 30.22 in 10.0 mi North 4.6 mph - N/A   Clear
10:15 PM 64.4 °F - 42.8 °F 45% 30.22 in 10.0 mi North 8.1 mph - N/A   Clear
10:35 PM 62.6 °F - 42.8 °F 48% 30.23 in 10.0 mi East 3.5 mph - N/A   Clear
10:55 PM 64.4 °F - 44.6 °F 49% 30.24 in 10.0 mi East 3.5 mph - N/A   Scattered Clouds
11:15 PM 62.6 °F - 44.6 °F 52% 30.24 in 10.0 mi East 5.8 mph - N/A   Overcast
11:35 PM 62.6 °F - 44.6 °F 52% 30.24 in 10.0 mi NW 4.6 mph - N/A   Overcast
11:55 PM 64.4 °F - 44.6 °F 49% 30.24 in 10.0 mi Calm Calm - N/A   Overcast